Query Options
Date and Time
prev <   Hour:    > next
Selected Variables
Available Variables
States


Actions

Manual Quality Control

You have selected 0 variables for manual quality control.

These variables will be removed from the active data set and placed in the quality control database.

Please enter a detailed reason for this action in the space provided below.


Results
mouse over column headers for more information or click to sort
City/LocationStateDate/TimeSourceTempWind
Chill
DewPtBPRHPrecipWind
Speed
Wind
Dir
Max
Wind
Monroe TownshipNJ2014-04-24 01:59NJDOT454527 49 2WNW 
West Orange 1NJ2014-04-24 01:59NJDOT404028 61 2NW 
SussexNJ2014-04-24 01:53ASOS39392729.8860 0N 
CaldwellNJ2014-04-24 01:53ASOS43372729.8852 12NW24
Toms RiverNJ2014-04-24 02:15AWOS41 2529.8852 5NW 
TrentonNJ2014-04-24 01:53ASOS43372529.8749 9NW18
Cherry Hill TownshipNJ2014-04-24 01:59NJDOT444424 44 2NW 
Berkeley HeightsNJ2014-04-24 01:59NJDOT424226 53 1NE 
PembertonNJ2014-04-24 01:59NJDOT434329 56 1S 
Warren TownshipNJ2014-04-24 01:59NJDOT414126 55 1NW 
Wildwood (NJDOT)NJ2014-04-24 01:59NJDOT484827 44 3NNE 
Piscataway 1NJ2014-04-24 01:59NJDOT414123 48 1WNW 
Freehold TownshipNJ2014-04-24 01:59NJDOT424227 54 1WNW 
FarmingdaleNJ2014-04-24 02:15AWOS43 2529.8749 9NW 
Linden AirportNJ2014-04-24 02:15AWOS45382929.8955 13NW 
Ancora HospitalNJ2014-04-24 02:10RAWS44     8NW17
Woodbine (R)NJ2014-04-24 02:11RAWS45 26 47 6NW17
Knowlton TownshipNJ2014-04-24 02:00NJDOT434324 45 2WNW 
Greenwich (Warren)NJ2014-04-24 02:00NJDOT414128 60 0WSW 
Cape May CourthouseNJ2014-04-24 02:00Mesonet444428 540.002NW12
Wall Twp.NJ2014-04-24 02:00Mesonet414127 580.002NNW11
WayneNJ2014-04-24 01:53SafetyNet42    0.00   
KingwoodNJ2014-04-24 01:53SafetyNet40  29.91 0.00 WNW9
HackettstownNJ2014-04-24 01:53SafetyNet40  29.89 0.00 SSE5
SomervilleNJ2014-04-24 01:53ASOS43392729.8752 6NW 
RamseyNJ2014-04-24 01:53SafetyNet41  29.88 0.00   
ClaytonNJ2014-04-24 01:53SafetyNet4443   0.003WNW 
HopeNJ2014-04-24 01:53SafetyNet37    0.00 NW6
West Orange 2NJ2014-04-24 01:59NJDOT414128 58 0WNW 
Upper Freehold Twp.NJ2014-04-24 01:59NJDOT424224 48 2NW 
Basking RidgeNJ2014-04-24 02:00Mesonet41402829.85580.003NNE15
HaworthNJ2014-04-24 02:00Mesonet43393029.82590.007WNW20
OceanportNJ2014-04-24 02:00Mesonet433928 540.006NW18
Upper DeerfieldNJ2014-04-24 02:00Mesonet41362929.91630.008WNW10
WoodbineNJ2014-04-24 02:00Mesonet45402729.88490.0010NW23
Berkeley Twp.NJ2014-04-24 02:00Mesonet42392729.85560.005NW14
West Windsor TownshipNJ2014-04-24 02:00NJDOT424223 46 2W 
Mansfield Township (NJDOT)NJ2014-04-24 02:00NJDOT  16 47 1NW 
Atlantic City AirportNJ2014-04-24 01:54ASOS43372529.9049 12WNW 
Blue Mountain LakesNJ2014-04-24 02:14RAWS36 25 63 9NW17
Jackson (R)NJ2014-04-24 02:10RAWS42 26 53 4WNW11
TeetertownNJ2014-04-24 02:10RAWS38     7WNW18
AndoverNJ2014-04-24 01:54ASOS39362729.8862 5N 
GreenwichNJ2014-04-24 02:00Mesonet413931 670.004W7
SewellNJ2014-04-24 02:00Mesonet454228 520.005NNW15
SummitNJ2014-04-24 02:00NJDOT434129 58 3N 
Dennis Twp.NJ2014-04-24 02:00Mesonet444228 530.005NW13
Toms RiverNJ2014-04-24 02:00RISE424229 60 2WNW7
Cedar BridgeNJ2014-04-24 02:00USFS413824 510.005NW14
Hamilton Twp. (Atlantic)NJ2014-04-24 01:59NJDOT444422 41 1WNW 
Atlantic City (NJDOT)NJ2014-04-24 01:59NJDOT46 26 43 3N 
PittstownNJ2014-04-24 02:00Mesonet39312429.83540.0012W15
Sea GirtNJ2014-04-24 02:00Mesonet42392729.85550.006WNW17
West Cape MayNJ2014-04-24 02:00Mesonet47 35 610.007NW25
Cherry HillNJ2014-04-24 02:00Mesonet464627 470.003NW11
SicklervilleNJ2014-04-24 02:00Mesonet43432629.92520.002W12
Jersey City (LSC)NJ2014-04-24 02:00Mesonet43382829.87540.0010NW17
HamiltonNJ2014-04-24 02:00Mesonet434127 520.004NW11
HolmdelNJ2014-04-24 02:00Mesonet414128 590.000SSE8
HammontonNJ2014-04-24 02:00Mesonet444223 430.004NNW18
Maurice Township 2NJ2014-04-24 01:59NJDOT454529 52 1WNW 
Chester TownshipNJ2014-04-24 01:59NJDOT4141    1WNW 
NewarkNJ2014-04-24 01:51ASOS44382929.8655 13WNW 
Woodbridge TwpNJ2014-04-24 01:59NJDOT434328 56 2WNW 
Egg HarborNJ2014-04-24 02:00Mesonet444224 450.004NNW13
McGuire AFBNJ2014-04-24 01:58AWOS43372529.8949 10WNW 
Cream RidgeNJ2014-04-24 02:00Mesonet41382429.89510.004NW17
High PointNJ2014-04-24 02:00Mesonet34292329.77640.006W16
Coyle FieldNJ2014-04-24 02:10RAWS37 24 59 1E10
Mount HollyNJ2014-04-24 01:54ASOS45402529.9045 8WNW 
Piscataway 2NJ2014-04-24 02:00NJDOT434328 53 1SSW 
PequestNJ2014-04-24 02:00Mesonet42402529.93510.003WNW10
Oswego LakeNJ2014-04-24 02:00Mesonet43392529.87490.006NNW12
MansfieldNJ2014-04-24 02:00Mesonet42422729.81540.000WNW6
Silas LittleNJ2014-04-24 02:00USFS433925 480.007W15
Gooseneck Pt. BridgeNJ2014-04-24 02:15Shrewsbury Network44  29.9046 7WNW 
Allamuchy Twp.NJ2014-04-24 02:00NJDOT383826 62 1N 
WanaqueNJ2014-04-24 01:59NJDOT414129 62 0NNW 
Wildwood (A)NJ2014-04-24 02:15AWOS46 2829.9449 8NW 
Mount Olive TownshipNJ2014-04-24 01:59NJDOT373725 60 1WNW 
CharlotteburgNJ2014-04-24 02:00Mesonet39392729.85620.000NNW19
Oceanic BridgeNJ2014-04-24 02:15Shrewsbury Network44  29.9051 9WNW 
New BrunswickNJ2014-04-24 02:00Mesonet42422829.90590.003W4
ButlerNJ2014-04-24 02:10APRSWXNET/CWOP42 30 63    
Hamilton Twp. (Mercer)NJ2014-04-24 01:59NJDOT454525 45 1W 
E. BrunswickNJ2014-04-24 02:10APRSWXNET/CWOP41 29 62    
MorristownNJ2014-04-24 02:15ASOS45 2729.8749 8WNW 
Sea BrightNJ2014-04-24 02:15Shrewsbury Network45  29.9253 8WNW 
MillvilleNJ2014-04-24 01:54ASOS43372829.9356 9WNW 
TeterboroNJ2014-04-24 01:51ASOS45382929.8453 15NW24
WantageNJ2014-04-24 01:52SafetyNet373130 750.007NNE16
Fort Dix INJ2014-04-24 02:00USFS423926 540.004NW11
Logan TownshipNJ2014-04-24 01:59NJDOT444431 59 1W 
WalpackNJ2014-04-24 01:52SafetyNet36    0.00 WNW 
BivalveNJ2014-04-24 01:52SafetyNet4441 29.92 0.005NW6
LafayetteNJ2014-04-24 01:59NJDOT383828 64 0NNE 
High Pt. MonumentNJ2014-04-24 01:52SafetyNet33 28 830.00   
EatontownNJ2014-04-24 02:00NJDOT424226 52 1N 
South HarrisonNJ2014-04-24 02:00Mesonet444032 620.007N11
Lyndhurst (NJMC)NJ2014-04-24 02:00MERI44443029.90570.002NW15
Piney HollowNJ2014-04-24 02:00Mesonet444127 510.005NNW15
HowellNJ2014-04-24 02:00Mesonet42422829.76560.002NW11
HawthorneNJ2014-04-24 01:52SafetyNet4440 29.83 0.006 19
Howell Township (NJDOT)NJ2014-04-24 01:59NJDOT424223 45 0NNW 
West CreekNJ2014-04-24 01:52SafetyNet42    0.00   
Point PleasantNJ2014-04-24 01:52SafetyNet4442 29.89 0.003WNW11
HillsboroughNJ2014-04-24 01:52SafetyNet42  29.91 0.00 NW11
Atlantic City MarinaNJ2014-04-24 01:52SafetyNet46    0.003NNW10
Mullica Twp.NJ2014-04-24 01:52SafetyNet4439 29.91  10NW14
NetcongNJ2014-04-24 01:52SafetyNet38    0.00   
StewartsvilleNJ2014-04-24 01:52SafetyNet42383029.91620.007W13
Harvey CedarsNJ2014-04-24 01:52SafetyNet4438   0.0013NW19
Seaside HeightsNJ2014-04-24 01:52SafetyNet4338 29.90 0.008NNW15
Red LionNJ2014-04-24 01:52SafetyNet4441 29.90 0.005NNW11
Springfield TownshipNJ2014-04-24 01:59NJDOT434321 41 0NNW 
Maurice Township 1NJ2014-04-24 01:59NJDOT444423 44 0W 
Chatham Twp.NJ2014-04-24 01:52SafetyNet     0.00 WNW11
Old Bridge TownshipNJ2014-04-24 01:59NJDOT424229 61 0NW 
North Beach HavenNJ2014-04-24 02:00APRSWXNET/CWOP45413329.8662 8NW14
Download this data for Excel